Date,TemperatureHighF,TemperatureAvgF,TemperatureLowF,DewpointHighF,DewpointAvgF,DewpointLowF,HumidityHigh,HumidityAvg,HumidityLow,PressureMaxIn,PressureMinIn,WindSpeedMaxMPH,WindSpeedAvgMPH,GustSpeedMaxMPH,PrecipitationSumIn
2013-1-1,46,41,36,43,33,14,99,78,35,29.89,29.71,21,7,0,0.22
2013-1-2,36,32,29,36,30,25,99,91,83,29.98,29.75,14,6,0,0.01
2013-1-3,39,30,28,30,24,18,99,79,50,30.02,29.91,11,5,0,0.00
2013-1-4,38,29,23,20,19,17,81,68,43,30.08,29.94,22,12,0,0.00
2013-1-5,46,34,25,27,21,18,79,59,33,30.18,30.01,19,6,0,0.00
2013-1-6,47,36,29,35,30,27,93,79,63,30.01,29.85,12,3,0,0.02
2013-1-7,65,35,21,31,25,20,98,71,28,30.22,29.98,0,0,0,0.00
2013-1-8,61,34,16,37,26,16,99,79,37,30.24,30.14,0,0,0,0.00
2013-1-9,65,46,28,51,43,27,99,89,56,30.29,30.18,0,0,0,0.00
2013-1-10,56,46,35,46,34,26,94,66,33,30.40,30.26,10,3,0,0.07
2013-1-11,55,45,36,53,42,30,99,92,56,30.25,29.96,16,6,0,0.06
2013-1-12,70,59,48,59,55,47,99,88,63,30.01,29.94,14,4,0,0.00
2013-1-13,67,61,58,57,56,54,89,81,63,29.97,29.86,18,8,0,0.00
2013-1-14,61,51,40,58,50,39,99,97,85,30.07,29.91,15,5,0,0.97
2013-1-15,42,38,34,42,38,34,99,99,99,30.07,29.88,10,5,0,3.79
2013-1-16,56,44,33,53,43,33,99,97,84,29.89,29.74,7,3,0,0.68
2013-1-17,42,35,29,41,34,29,99,98,90,29.97,29.77,12,4,0,0.78
2013-1-18,33,26,20,28,23,20,99,91,68,30.30,29.97,6,2,0,0.77
2013-1-19,49,31,14,31,23,14,99,76,39,30.24,29.91,9,3,0,1.20
2013-1-20,46,40,32,31,28,24,79,63,50,29.90,29.77,21,11,0,0.02
2013-1-21,47,34,24,27,19,7,83,55,39,29.88,29.65,25,10,0,0.00
2013-1-22,24,18,12,8,0,-4,59,45,32,29.99,29.74,18,10,0,0.00
2013-1-23,31,21,11,21,8,-2,66,56,34,30.04,29.78,17,7,0,0.00
2013-1-24,34,22,10,24,9,1,80,59,42,30.24,29.72,30,9,0,0.00
2013-1-25,31,18,10,29,12,1,96,80,55,30.21,29.79,11,4,0,0.00
2013-1-26,38,29,22,30,23,18,90,77,54,30.17,29.80,18,8,0,0.00
2013-1-27,31,25,13,26,20,11,98,85,75,30.32,30.18,9,3,0,0.00
2013-1-28,58,43,31,44,36,26,98,79,56,30.21,29.98,16,4,0,0.14
2013-1-29,69,56,45,55,48,41,91,76,49,30.05,29.88,16,6,0,0.00
2013-1-30,62,57,44,59,56,44,99,95,88,29.86,29.21,25,13,0,3.05
2013-1-31,46,32,29,44,24,18,94,71,56,29.71,29.22,29,16,0,0.02
2013-2-1,34,20,12,29,9,2,96,62,45,30.10,29.57,26,12,0,0.01
2013-2-2,31,22,10,26,14,-18,98,71,22,30.10,29.76,12,5,0,0.00
2013-2-3,35,29,25,28,24,19,94,80,69,29.76,29.61,25,12,0,0.00
2013-2-4,40,29,19,26,19,14,83,68,51,29.88,29.73,22,7,0,0.00
2013-2-5,47,40,35,36,31,24,82,71,54,29.76,29.67,19,10,0,0.00
2013-2-6,49,40,29,34,27,22,83,63,37,30.10,29.76,13,5,0,0.00
2013-2-7,34,31,29,33,30,23,99,93,67,30.14,29.86,11,6,0,0.05
2013-2-8,48,35,30,41,31,23,99,88,59,29.86,29.61,30,9,0,0.40
2013-2-9,44,32,24,24,16,10,79,56,25,30.16,29.84,23,9,0,0.00
2013-2-10,46,34,21,35,20,13,96,59,38,30.24,29.97,16,4,0,0.13
2013-2-11,59,50,37,51,43,33,99,80,45,29.97,29.73,24,11,0,0.08
2013-2-12,53,42,35,33,23,19,64,48,28,29.88,29.72,22,10,0,0.00
2013-2-13,41,38,33,40,35,30,99,92,65,29.75,29.41,25,6,0,0.21
2013-2-14,49,36,28,30,26,22,90,67,34,29.84,29.62,17,7,0,0.00
2013-2-15,52,38,28,37,31,26,96,77,45,29.88,29.73,18,6,0,0.00
2013-2-16,31,27,20,29,20,12,92,74,51,29.79,29.59,12,6,0,0.00
2013-2-17,26,19,12,16,8,4,91,62,41,29.98,29.66,26,11,0,0.00
2013-2-18,49,32,16,24,16,6,69,52,36,30.12,29.94,15,6,0,0.00
2013-2-19,47,39,32,39,26,12,92,62,35,29.95,29.57,27,14,0,0.08
2013-2-20,41,31,25,15,10,5,57,43,23,29.92,29.73,22,13,0,0.00
2013-2-21,47,33,21,16,14,12,69,47,28,30.05,29.87,14,7,0,0.00
2013-2-22,36,29,25,30,27,17,99,95,45,30.11,29.89,12,6,0,0.00
2013-2-23,51,38,29,45,37,29,99,95,79,29.91,29.64,5,2,0,0.18
2013-2-24,50,40,32,39,28,20,99,65,32,29.86,29.63,19,8,0,0.00
2013-2-25,37,30,23,25,22,20,88,71,58,29.97,29.86,11,5,0,0.00
2013-2-26,34,31,27,34,29,20,99,91,70,29.94,29.39,16,3,0,0.00
2013-2-27,47,38,32,35,32,30,99,82,62,29.56,29.40,20,8,0,0.23
2013-2-28,35,31,29,30,26,24,97,83,64,29.63,29.48,17,10,0,0.00
2013-3-1,34,31,29,28,25,23,86,79,69,29.69,29.59,14,7,0,0.00
2013-3-2,30,27,23,24,21,16,83,76,70,29.68,29.60,14,8,0,0.00
2013-3-3,27,23,21,20,16,13,87,74,64,29.73,29.64,22,11,0,0.00
2013-3-4,43,30,19,16,13,8,77,52,24,29.87,29.72,17,8,0,0.00
2013-3-5,46,36,30,34,27,16,99,74,43,29.87,29.40,12,5,0,0.87
2013-3-6,33,29,25,32,26,23,99,90,78,29.86,29.38,21,10,0,0.01
2013-3-7,33,30,29,27,26,23,90,83,73,30.04,29.86,20,10,0,0.00
2013-3-8,44,35,29,26,24,22,81,67,49,30.15,29.99,16,8,0,0.00
2013-3-9,58,41,24,32,27,22,91,61,35,30.16,30.04,8,4,0,0.00
2013-3-10,60,47,29,35,31,25,85,55,38,30.13,29.99,12,4,0,0.00
2013-3-11,54,49,44,50,38,21,93,67,36,30.03,29.72,12,6,0,0.09
2013-3-12,53,46,34,52,40,29,99,81,52,29.80,29.56,19,8,0,0.96
2013-3-13,39,33,24,31,24,16,96,71,53,29.92,29.77,20,10,0,0.00
2013-3-14,42,30,22,18,15,13,78,55,34,30.03,29.89,20,11,0,0.00
2013-3-15,57,42,26,36,26,15,67,53,43,29.95,29.71,23,11,0,0.00
2013-3-16,72,57,43,52,44,33,85,65,41,29.72,29.47,27,11,0,0.01
2013-3-17,52,40,32,48,40,31,99,98,86,29.97,29.71,13,5,0,0.36
2013-3-18,32,30,29,32,30,28,99,99,98,29.97,29.66,12,4,0,0.11
2013-3-19,54,41,30,38,24,2,99,61,20,29.86,29.62,26,10,0,0.19
2013-3-20,48,37,27,23,12,4,64,36,22,29.86,29.59,22,9,0,0.00
2013-3-21,33,24,19,27,14,8,89,66,46,29.73,29.54,18,9,0,0.00
2013-3-22,46,28,15,16,12,9,79,54,28,29.82,29.70,14,6,0,0.00
2013-3-23,51,37,25,31,22,14,82,57,39,29.84,29.70,13,3,0,0.00
2013-3-24,35,30,27,32,27,23,99,90,62,29.75,29.35,12,6,0,0.01
2013-3-25,35,29,25,29,25,23,99,85,62,29.56,29.29,18,8,0,0.00
2013-3-26,38,32,29,28,25,23,87,76,60,29.91,29.56,16,10,0,0.12
2013-3-27,37,31,27,26,23,20,92,73,55,30.03,29.90,16,8,0,0.07
2013-3-28,44,35,29,26,24,21,88,65,43,30.09,29.97,21,8,0,0.08
2013-3-29,53,38,25,27,24,20,85,58,33,30.13,29.97,14,4,0,0.00
2013-3-30,58,43,28,33,28,25,93,58,32,30.08,29.89,11,3,0,0.00
2013-3-31,58,50,44,49,44,31,99,79,54,29.91,29.63,20,7,0,0.18
2013-4-1,56,47,36,45,39,28,93,75,54,29.83,29.67,24,8,0,0.01
2013-4-2,50,37,27,28,19,12,81,51,24,29.97,29.83,16,6,0,0.00
2013-4-3,50,38,27,19,14,11,55,39,24,30.15,29.97,14,4,0,0.00
2013-4-4,36,32,29,32,20,12,99,65,41,30.16,29.79,17,6,0,0.43
2013-4-5,57,42,32,38,33,28,99,74,37,29.89,29.72,16,6,0,0.97
2013-4-6,60,47,29,35,31,27,91,55,38,30.08,29.90,12,5,0,0.00
2013-4-7,65,52,36,44,37,28,79,58,45,30.06,29.92,14,6,0,0.00
2013-4-8,73,61,44,51,46,40,84,58,37,30.01,29.90,15,6,0,0.00
2013-4-9,79,67,51,55,51,46,86,59,40,30.07,29.94,14,6,0,0.00
2013-4-10,84,71,58,56,54,51,79,58,34,30.00,29.83,17,7,0,0.00
2013-4-11,75,68,60,60,55,51,91,65,45,29.84,29.62,20,9,0,0.20
2013-4-12,70,61,51,62,53,37,99,77,39,29.67,29.51,21,10,0,1.64
2013-4-13,67,55,44,41,35,30,69,48,26,29.87,29.66,20,9,0,0.00
2013-4-14,72,58,40,44,36,31,73,47,29,29.98,29.88,17,5,0,0.00
2013-4-15,60,52,48,52,50,45,99,94,59,30.11,29.92,18,8,0,0.35
2013-4-16,74,61,52,61,56,52,99,85,63,30.16,30.05,12,5,0,0.00
2013-4-17,77,64,56,60,57,54,93,79,51,30.13,30.01,9,3,0,0.00
2013-4-18,71,65,59,61,58,54,94,78,58,30.05,29.87,19,6,0,0.00
2013-4-19,138,60,44,100,57,40,98,91,80,29.86,29.56,26,12,0,1.15
2013-4-20,56,44,34,39,30,26,85,59,34,30.15,29.73,20,8,0,0.00
2013-4-21,54,42,29,36,32,26,93,67,47,30.33,30.15,14,6,0,0.00
2013-4-22,55,44,31,34,30,24,96,61,31,30.31,30.10,14,7,0,0.00
2013-4-23,68,53,41,50,43,34,84,71,51,30.15,29.93,12,4,0,0.00
2013-4-24,68,58,48,56,51,46,96,78,55,29.97,29.80,18,7,0,0.02
2013-4-25,65,48,35,45,32,14,92,58,17,30.18,29.93,11,6,0,0.00
2013-4-26,64,50,31,38,33,25,89,53,34,30.29,30.16,10,2,0,0.00
2013-4-27,61,54,47,50,43,35,93,68,51,30.24,30.13,8,2,0,0.02
2013-4-28,52,49,47,50,48,46,99,95,82,30.13,29.88,17,6,0,0.90
2013-4-29,64,54,47,57,52,47,99,94,75,29.94,29.85,7,3,0,0.11
2013-4-30,65,57,52,57,54,52,99,89,72,30.09,29.90,11,5,0,0.00
2013-5-1,64,55,50,55,51,47,99,89,66,30.21,30.08,15,8,0,0.01
2013-5-2,59,53,46,54,49,42,93,85,79,30.22,30.13,14,8,0,0.00
2013-5-3,60,52,46,49,46,42,97,83,64,30.15,30.05,19,9,0,0.00
2013-5-4,58,46,40,47,43,39,97,87,65,30.06,29.94,22,12,0,0.01
2013-5-5,49,45,40,48,42,34,99,90,68,29.98,29.83,22,12,0,0.50
2013-5-6,55,50,47,55,50,47,99,99,99,29.87,29.71,22,10,0,3.41
2013-5-7,56,51,44,55,51,44,99,98,87,29.79,29.72,10,3,0,0.55
2013-5-8,58,48,42,54,48,42,99,98,87,29.88,29.76,8,2,0,0.73
2013-5-9,79,59,41,58,50,40,99,77,41,29.97,29.86,11,4,0,0.00
2013-5-10,77,62,47,61,55,47,99,81,47,29.98,29.83,16,4,0,0.28
2013-5-11,71,63,56,61,58,54,99,84,63,29.85,29.67,22,8,0,0.05
2013-5-12,57,51,39,54,38,31,90,65,40,29.91,29.72,20,9,0,0.00
2013-5-13,57,46,35,33,30,27,81,55,33,30.03,29.89,15,5,0,0.00
2013-5-14,68,51,29,45,36,28,99,62,32,30.07,29.89,16,4,0,0.00
2013-5-15,84,68,50,60,55,45,81,65,40,29.91,29.81,20,8,0,0.00
2013-5-16,76,68,57,59,56,52,82,65,52,29.92,29.82,18,7,0,0.00
2013-5-17,79,65,54,66,59,53,99,82,52,30.03,29.90,11,2,0,0.27
2013-5-18,67,61,59,64,60,58,99,98,89,30.06,29.99,11,5,0,0.27
2013-5-19,70,63,60,67,62,59,99,98,89,30.03,29.94,11,4,0,0.24
2013-5-20,75,65,59,69,63,59,99,94,80,30.01,29.91,8,2,0,0.29
2013-5-21,84,69,56,69,63,56,99,84,52,29.96,29.85,11,3,0,0.01
2013-5-22,80,68,56,72,64,56,99,88,66,29.91,29.80,16,4,0,0.58
2013-5-23,76,65,58,67,60,56,99,87,57,29.84,29.70,13,4,0,0.06
2013-5-24,60,53,46,56,44,35,94,74,45,30.06,29.73,22,11,0,0.00
2013-5-25,66,52,40,38,33,23,78,51,26,30.14,30.03,14,8,0,0.00
2013-5-26,71,56,47,43,41,38,82,58,35,30.13,30.05,14,4,0,0.00
2013-5-27,73,59,43,58,50,41,99,74,50,30.17,30.04,10,3,0,0.00
2013-5-28,78,68,54,64,60,53,99,75,54,30.12,30.04,12,5,0,0.00
2013-5-29,81,71,60,66,62,58,98,74,49,30.13,30.05,12,5,0,0.00
2013-5-30,82,70,54,67,62,53,99,77,60,30.16,30.09,11,4,0,0.00
2013-5-31,80,69,54,66,62,54,99,77,59,30.13,30.02,14,4,0,0.00
2013-6-1,82,72,61,68,63,59,93,75,57,30.04,29.92,16,6,0,0.00
2013-6-2,75,68,64,68,64,62,97,87,76,29.94,29.82,14,6,0,0.13
2013-6-3,78,67,58,65,62,57,99,85,60,29.91,29.77,13,4,0,0.03
2013-6-4,72,63,52,64,58,52,99,87,61,30.03,29.90,9,3,0,0.00
2013-6-5,70,62,57,63,60,56,99,92,77,30.04,29.94,13,3,0,0.00
2013-6-6,70,63,58,67,62,58,99,97,89,29.93,29.71,14,4,0,1.64
2013-6-7,70,65,59,67,64,58,99,94,87,29.75,29.54,15,4,0,0.16
2013-6-8,78,65,56,66,60,56,99,84,56,30.03,29.74,8,3,0,0.08
2013-6-9,81,70,61,71,65,60,99,84,60,30.08,29.97,10,3,0,0.17
2013-6-10,77,67,60,70,65,59,99,92,77,29.99,29.77,19,6,0,0.88
2013-6-11,77,68,59,64,62,58,99,83,64,29.90,29.79,17,8,0,0.13
2013-6-12,89,73,59,74,67,59,99,82,61,29.90,29.82,19,5,0,0.00
2013-6-13,86,72,60,70,65,54,95,81,58,29.82,29.53,22,11,0,0.10
2013-6-14,76,64,56,58,55,53,90,75,49,29.96,29.68,16,6,0,0.00
2013-6-15,79,65,50,60,55,50,99,73,46,30.05,29.95,12,3,0,0.00
2013-6-16,80,69,55,67,62,54,99,81,58,30.00,29.91,14,5,0,0.18
2013-6-17,82,69,64,70,66,63,99,90,60,29.97,29.86,9,3,0,0.02
2013-6-18,71,66,60,68,64,60,99,95,83,29.88,29.72,8,2,0,0.38
2013-6-19,74,65,56,68,62,56,99,91,70,30.06,29.83,12,3,0,0.07
2013-6-20,74,66,61,67,63,60,99,92,76,30.17,30.06,9,3,0,0.00
2013-6-21,79,66,55,68,62,54,99,86,66,30.19,30.13,10,3,0,0.00
2013-6-22,79,66,49,67,61,49,99,85,59,30.19,30.06,12,3,0,0.00
2013-6-23,82,71,61,70,66,60,99,85,56,30.15,30.04,9,2,0,0.00
2013-6-24,84,71,60,72,67,59,99,87,58,30.13,30.02,7,2,0,0.00
2013-6-25,83,70,62,73,67,62,99,90,68,30.06,29.94,9,3,0,0.04
2013-6-26,85,69,60,72,66,60,99,91,61,29.95,29.84,11,3,0,0.05
2013-6-27,79,70,63,72,67,63,99,90,75,29.85,29.65,14,6,0,0.02
2013-6-28,83,73,65,71,67,63,99,82,62,29.68,29.48,23,9,0,0.00
2013-6-29,79,70,61,68,64,60,99,84,62,29.67,29.52,12,5,0,0.25
2013-6-30,81,69,60,72,66,60,99,91,68,29.77,29.62,9,3,0,0.39
2013-7-1,77,69,63,70,66,62,99,91,77,29.90,29.74,11,4,0,0.03
2013-7-2,145,68,65,100,67,64,99,96,89,30.09,29.88,14,5,0,1.71
2013-7-3,73,68,66,71,68,65,99,98,93,30.16,30.04,11,3,0,2.73
2013-7-4,81,71,67,73,69,66,99,94,75,30.19,30.11,14,4,0,2.40
2013-7-5,81,72,67,74,69,66,99,92,80,30.19,30.12,14,5,0,0.31
2013-7-6,80,72,64,71,68,64,99,88,71,30.17,30.07,10,4,0,0.00
2013-7-7,79,70,64,73,68,64,99,93,82,30.12,30.02,12,4,0,0.08
2013-7-8,83,71,62,69,66,62,99,85,58,30.12,30.03,12,4,0,0.02
2013-7-9,85,74,66,73,68,65,99,84,58,30.09,30.00,9,2,0,0.00
2013-7-10,82,70,64,77,69,64,99,95,74,30.03,29.88,14,2,0,0.91
2013-7-11,80,70,66,72,68,66,99,94,72,29.89,29.81,8,2,0,0.01
2013-7-12,74,67,63,68,65,62,99,94,82,29.97,29.81,9,4,0,0.25
2013-7-13,72,66,63,69,66,62,99,97,91,30.12,29.96,12,6,0,0.17
2013-7-14,81,72,67,73,69,66,99,92,74,30.27,30.10,18,9,0,0.43
2013-7-15,85,73,66,73,69,65,99,87,61,30.30,30.21,6,2,0,0.24
2013-7-16,90,74,59,74,68,59,99,82,50,30.27,30.17,8,2,0,0.00
2013-7-17,87,73,67,76,70,67,99,91,67,30.23,30.11,6,2,0,0.73
2013-7-18,86,75,66,77,71,65,99,88,66,30.15,30.01,7,2,0,0.01
2013-7-19,86,74,64,77,70,64,99,88,64,30.06,29.92,9,2,0,0.33
2013-7-20,85,74,68,74,70,66,99,87,65,29.95,29.85,11,4,0,0.13
2013-7-21,83,72,64,73,69,64,99,90,71,29.93,29.85,8,2,0,0.03
2013-7-22,82,72,65,73,68,65,99,90,71,29.90,29.74,11,3,0,1.07
2013-7-23,82,72,65,70,67,64,99,86,62,29.76,29.68,12,6,0,0.00
2013-7-24,82,71,64,69,65,62,99,83,55,29.82,29.69,11,4,0,0.00
2013-7-25,77,67,59,66,63,58,98,86,68,29.98,29.81,10,3,0,0.04
2013-7-26,78,66,54,68,62,54,99,87,64,30.03,29.95,10,3,0,0.00
2013-7-27,70,66,63,67,64,62,99,95,89,29.97,29.84,11,3,0,1.02
2013-7-28,80,68,61,69,64,60,99,86,57,29.95,29.82,9,3,0,0.00
2013-7-29,80,64,55,60,57,54,99,80,46,30.13,29.95,10,3,0,0.00
2013-7-30,75,64,50,66,59,50,99,85,61,30.17,30.08,6,1,0,0.00
2013-7-31,71,65,61,66,63,61,99,94,81,30.09,29.91,5,1,0,0.07
2013-8-1,79,69,63,69,65,62,99,88,67,29.91,29.80,10,4,0,0.02
2013-8-2,79,68,60,66,62,59,99,81,52,29.97,29.86,9,3,0,0.00
2013-8-3,81,68,58,68,63,57,99,85,62,29.96,29.87,14,3,0,0.00
2013-8-4,78,69,60,66,62,58,99,79,54,30.00,29.86,14,3,0,0.00
2013-8-5,74,65,54,66,61,54,99,88,67,30.02,29.92,11,3,0,0.00
2013-8-6,77,69,63,71,66,62,99,90,70,29.97,29.88,10,3,0,0.00
2013-8-7,76,69,66,72,67,64,96,93,87,30.01,29.95,8,4,0,0.00
2013-8-8,80,72,67,73,69,65,96,90,80,29.98,29.93,8,3,0,0.00
2013-8-9,84,74,68,75,71,67,98,89,71,29.98,29.91,12,6,0,0.10
2013-8-10,82,74,67,74,70,66,98,90,72,30.03,29.97,12,4,0,0.05
2013-8-11,84,73,64,73,69,64,99,88,68,30.06,29.97,11,4,0,0.00
2013-8-12,84,73,66,72,68,65,99,85,60,30.02,29.90,9,4,0,0.39
2013-8-13,77,69,64,71,66,62,99,92,79,29.90,29.74,14,5,0,0.08
2013-8-14,74,63,52,62,55,49,96,78,45,30.03,29.80,11,4,0,0.00
2013-8-15,72,57,46,58,52,46,99,85,56,30.07,29.98,12,2,0,0.00
2013-8-16,70,57,44,60,53,44,99,88,68,30.10,30.01,9,2,0,0.00
2013-8-17,64,57,48,60,56,48,99,96,84,30.13,30.07,16,4,0,0.49
2013-8-18,72,63,60,67,62,60,99,97,83,30.13,30.04,10,4,0,1.21
2013-8-19,75,66,61,70,64,61,99,94,81,30.11,30.00,8,2,0,0.37
2013-8-20,78,68,60,72,66,59,99,94,81,30.12,30.03,7,2,0,0.00
2013-8-21,79,69,61,72,67,60,99,94,81,30.15,30.05,8,2,0,0.16
2013-8-22,80,70,60,71,66,59,99,89,69,30.09,29.94,11,3,0,0.02
2013-8-23,79,68,62,71,65,61,99,92,70,30.05,29.87,15,4,0,0.00
2013-8-24,75,64,54,61,56,53,99,80,51,30.25,30.05,12,3,0,0.00
2013-8-25,76,62,49,62,55,49,99,81,44,30.33,30.21,8,2,0,0.00
2013-8-26,81,64,48,64,57,47,99,82,53,30.25,30.03,10,2,0,0.00
2013-8-27,80,69,59,71,66,59,99,89,69,30.04,29.92,13,6,0,0.00
2013-8-28,81,71,64,73,68,63,99,91,72,29.96,29.81,15,5,0,0.00
2013-8-29,80,72,68,74,69,66,96,90,80,29.97,29.79,16,6,0,0.00
2013-8-30,80,71,64,72,67,64,99,90,75,29.99,29.85,9,3,0,0.00
2013-8-31,85,70,62,73,67,62,99,89,60,29.88,29.78,16,3,0,0.70
2013-9-1,81,70,61,73,66,60,99,91,68,29.83,29.74,8,3,0,0.03
2013-9-2,82,72,64,72,67,64,99,88,68,29.84,29.73,10,4,0,0.01
2013-9-3,80,70,59,70,65,58,99,83,55,29.92,29.75,10,5,0,0.00
2013-9-4,82,65,51,66,58,51,99,82,42,30.03,29.92,8,2,0,0.00
2013-9-5,80,65,52,62,57,52,99,78,43,30.07,29.98,11,4,0,0.01
2013-9-6,74,62,53,64,58,52,99,87,68,30.12,30.01,8,2,0,0.00
2013-9-7,81,65,50,67,58,49,99,82,44,30.06,29.88,9,2,0,0.00
2013-9-8,80,67,55,68,62,54,98,84,61,29.95,29.85,8,2,0,0.00
2013-9-9,76,66,56,70,64,56,99,95,80,30.10,29.95,10,3,0,0.00
2013-9-10,83,70,61,73,67,60,99,91,66,30.17,30.09,7,2,0,0.04
2013-9-11,83,70,61,74,67,61,99,92,71,30.15,30.01,9,2,0,0.07
2013-9-12,82,70,63,73,66,62,99,89,72,30.01,29.75,11,4,0,0.01
2013-9-13,72,64,52,62,54,46,94,72,42,29.86,29.70,17,7,0,0.00
2013-9-14,72,55,43,51,47,42,99,77,40,30.04,29.84,9,2,0,0.00
2013-9-15,73,58,42,59,52,42,99,83,52,30.12,30.00,11,3,0,0.00
2013-9-16,69,61,51,64,58,50,99,89,77,30.13,30.00,10,3,0,0.00
2013-9-17,65,52,41,56,49,40,99,91,69,30.26,30.13,10,3,0,0.00
2013-9-18,65,55,48,58,52,46,96,89,76,30.20,30.06,6,2,0,0.00
2013-9-19,74,62,55,66,60,54,99,92,75,30.08,29.98,7,1,0,0.03
2013-9-20,72,64,61,68,63,60,99,96,84,29.99,29.85,8,2,0,0.08
2013-9-21,66,62,56,64,61,56,99,97,93,29.86,29.61,10,4,0,0.78
2013-9-22,70,58,49,56,53,48,99,84,58,29.83,29.65,8,4,0,0.01
2013-9-23,73,55,45,57,51,45,99,88,54,29.96,29.83,9,2,0,0.00
2013-9-24,72,58,46,62,54,46,99,88,52,29.98,29.81,7,2,0,0.00
2013-9-25,65,56,47,60,54,46,99,94,77,29.86,29.75,7,2,0,0.04
2013-9-26,74,60,51,59,54,50,99,85,56,29.97,29.80,10,2,0,0.00
2013-9-27,70,56,43,56,50,42,99,82,55,30.10,29.97,9,2,0,0.00
2013-9-28,63,55,45,55,52,44,98,88,71,30.15,30.07,10,3,0,0.00
2013-9-29,67,54,43,58,50,42,99,88,68,30.08,29.91,7,2,0,0.00
2013-9-30,69,57,47,59,53,46,99,87,68,29.99,29.88,5,1,0,0.00
2013-10-1,75,59,46,61,54,46,99,85,56,30.03,29.93,10,2,0,0.00
2013-10-2,79,62,48,63,56,48,99,85,54,30.07,29.95,10,2,0,0.00
2013-10-3,76,62,49,64,57,49,99,87,62,30.05,29.97,5,1,0,0.00
2013-10-4,80,65,52,66,60,52,99,86,56,30.07,29.96,10,2,0,0.00
2013-10-5,81,66,52,66,60,52,99,84,58,30.07,29.94,7,2,0,0.00
2013-10-6,78,66,54,67,60,53,99,84,58,29.98,29.80,14,4,0,0.00
2013-10-7,67,60,47,64,56,44,98,88,73,29.95,29.68,20,6,0,1.28
2013-10-8,62,50,41,48,44,40,97,80,57,30.13,29.94,19,4,0,0.00
2013-10-9,64,51,40,49,42,39,97,77,42,30.16,30.03,12,3,0,0.00
2013-10-10,63,53,45,59,51,42,99,92,83,30.05,29.87,7,3,0,0.18
2013-10-11,67,60,56,61,57,53,93,89,81,29.89,29.82,9,5,0,0.00
2013-10-12,64,59,56,61,58,54,98,94,89,30.01,29.87,8,2,0,0.06
2013-10-13,64,59,56,60,57,56,98,95,87,30.14,30.00,10,4,0,0.01
2013-10-14,66,58,54,60,56,52,99,94,81,30.17,30.04,10,4,0,0.21
2013-10-15,66,55,46,56,50,46,99,86,59,30.11,29.95,9,2,0,0.00
2013-10-16,68,57,47,61,54,46,99,89,67,29.98,29.81,6,1,0,0.00
2013-10-17,65,59,54,62,57,51,98,93,86,29.85,29.69,14,4,0,0.06
2013-10-18,63,51,42,50,45,39,97,79,50,30.10,29.79,11,4,0,0.00
2013-10-19,60,51,43,56,48,43,99,90,65,30.05,29.90,11,4,0,0.00
2013-10-20,59,46,36,44,35,27,95,70,30,30.14,29.98,11,4,0,0.00
2013-10-21,65,47,29,50,41,29,99,82,56,30.17,30.01,10,2,0,0.00
2013-10-22,62,53,46,48,47,45,96,80,60,30.03,29.86,12,5,0,0.25
2013-10-23,53,45,35,48,40,30,99,84,57,30.01,29.75,24,8,0,0.19
2013-10-24,43,37,32,33,30,28,86,78,66,30.16,30.00,16,8,0,0.00
2013-10-25,43,34,26,31,27,22,94,77,54,30.32,30.16,14,6,0,0.00
2013-10-26,52,37,18,32,26,17,96,67,34,30.31,30.04,15,5,0,0.00
2013-10-27,60,48,35,39,36,30,85,64,41,30.15,30.03,15,5,0,0.00
2013-10-28,58,46,33,53,44,32,99,92,82,30.29,30.14,10,2,0,0.00
2013-10-29,64,55,48,54,50,48,99,87,68,30.36,30.26,7,2,0,0.00
2013-10-30,68,58,52,59,54,49,95,86,72,30.30,30.17,12,3,0,0.09
2013-10-31,64,61,58,58,56,54,87,82,76,30.22,29.90,25,8,0,0.00
2013-11-1,72,63,50,59,55,44,94,78,48,29.88,29.71,26,10,0,0.04
2013-11-2,60,51,44,45,38,31,82,63,39,29.99,29.78,22,8,0,0.00
2013-11-3,52,42,29,36,32,27,91,69,49,30.36,29.99,14,4,0,0.00
2013-11-4,47,37,26,31,28,25,95,71,53,30.50,30.36,10,4,0,0.00
2013-11-5,51,41,30,44,35,24,96,79,67,30.53,30.42,9,3,0,0.00
2013-11-6,65,53,44,52,48,43,99,82,60,30.41,30.14,11,4,0,0.01
2013-11-7,56,48,36,53,43,28,95,81,64,30.13,30.01,18,8,0,0.00
2013-11-8,45,37,25,28,23,20,81,60,40,30.30,30.12,18,5,0,0.00
2013-11-9,51,37,22,28,24,19,88,61,34,30.30,30.14,14,4,0,0.00
2013-11-10,60,48,36,36,28,21,68,48,24,30.26,30.06,22,10,0,0.00
2013-11-11,57,43,28,28,24,20,78,49,23,30.30,30.12,10,4,0,0.00
2013-11-12,47,36,23,35,23,15,77,59,37,30.36,30.04,17,7,0,0.00
2013-11-13,38,28,20,17,14,11,78,59,32,30.43,30.34,17,8,0,0.00
2013-11-14,56,37,22,18,14,6,70,44,17,30.38,30.25,9,3,0,0.00
2013-11-15,60,43,27,45,28,16,96,61,20,30.29,30.18,16,3,0,0.15
2013-11-16,56,49,43,52,48,42,99,95,85,30.28,30.20,8,2,0,0.02
2013-11-17,60,54,50,58,53,50,99,96,89,30.22,29.89,18,6,0,0.04
2013-11-18,60,53,41,58,38,25,97,61,34,30.02,29.86,20,11,0,0.09
2013-11-19,46,37,27,26,24,23,84,61,40,30.28,30.00,18,6,0,0.00
2013-11-20,43,35,28,28,24,22,77,65,48,30.43,30.27,16,7,0,0.00
2013-11-21,53,42,34,46,37,28,87,82,76,30.47,30.36,8,3,0,0.00
2013-11-22,67,56,49,55,51,44,95,84,65,30.37,30.12,14,7,0,0.00
2013-11-23,53,41,26,50,33,14,92,74,46,30.18,30.05,19,9,0,0.00
2013-11-24,26,20,15,14,5,-1,76,52,31,30.41,30.18,18,8,0,0.00
2013-11-25,33,24,11,19,8,3,79,52,34,30.41,30.27,10,3,0,0.00
2013-11-26,39,35,27,39,33,19,99,94,69,30.26,29.67,18,4,0,3.00
2013-11-27,39,28,19,38,24,12,99,87,71,30.07,29.65,22,13,0,0.08
2013-11-28,38,25,17,19,16,12,84,70,42,30.38,30.06,18,6,0,0.00
2013-11-29,42,30,19,24,20,15,83,67,45,30.55,30.37,10,4,0,0.00
2013-11-30,37,27,18,24,20,14,87,72,56,30.55,30.29,10,3,0,0.00
2013-12-1,52,35,17,30,21,14,90,60,31,30.29,30.03,12,3,0,0.00
2013-12-2,51,36,23,37,29,19,85,76,58,30.03,29.86,7,1,0,0.00
2013-12-3,56,44,32,45,39,30,94,82,64,30.00,29.88,7,2,0,0.00
2013-12-4,60,51,45,53,48,44,99,90,77,30.09,29.97,11,4,0,0.00
2013-12-5,65,58,50,59,55,50,98,90,78,30.12,30.03,17,6,0,0.03
2013-12-6,67,61,45,62,58,44,97,91,84,30.08,29.96,17,9,0,0.34
2013-12-7,44,35,30,43,33,28,98,92,85,30.40,30.07,13,6,0,0.17
2013-12-8,32,28,25,31,27,24,97,95,90,30.37,30.19,11,5,0,0.01
2013-12-9,51,41,31,49,40,30,99,96,89,30.18,30.03,12,4,0,1.08
2013-12-10,39,33,26,38,29,17,99,87,68,30.21,29.95,22,8,0,0.47
2013-12-11,45,32,22,20,17,13,80,55,30,30.33,30.19,16,9,0,0.00
2013-12-12,33,27,21,19,11,0,73,53,25,30.31,30.21,16,8,0,0.00
2013-12-13,45,32,22,22,16,9,69,51,34,30.27,30.16,13,6,0,0.00
2013-12-14,35,32,31,31,29,21,99,87,64,30.24,29.78,11,4,0,0.15
2013-12-15,38,33,29,38,30,25,99,88,77,30.02,29.73,23,12,0,0.03
2013-12-16,45,34,27,32,28,24,90,80,61,30.10,30.00,17,7,0,0.00
2013-12-17,52,40,32,35,32,24,96,73,49,30.08,29.89,22,9,0,0.05
2013-12-18,40,31,25,23,19,16,80,63,39,30.22,29.98,21,9,0,0.00
2013-12-19,62,42,26,28,22,15,68,47,24,30.23,30.13,10,2,0,0.00
2013-12-20,60,49,38,39,29,23,71,47,30,30.17,30.06,16,7,0,0.00
2013-12-21,62,58,46,59,52,38,93,81,61,30.11,30.02,25,11,0,0.00
2013-12-22,66,59,55,61,57,52,96,93,80,30.11,29.99,22,8,0,0.90
2013-12-23,59,46,29,58,44,26,99,92,86,30.19,30.01,16,8,0,1.07
2013-12-24,32,25,15,25,18,9,90,75,54,30.35,30.16,21,8,0,0.00
2013-12-25,32,20,9,14,8,2,87,61,32,30.39,30.25,9,2,0,0.00
2013-12-26,42,30,15,26,18,9,82,62,44,30.33,30.16,19,6,0,0.00
2013-12-27,47,32,20,20,17,15,79,57,30,30.38,30.27,10,2,0,0.00
2013-12-28,53,36,21,42,21,15,96,58,22,30.34,30.14,8,2,0,0.19
2013-12-29,48,41,35,45,39,34,98,92,85,30.12,29.72,20,8,0,1.16
2013-12-30,40,35,28,36,32,26,91,87,84,30.11,29.91,16,7,0,0.00
2013-12-31,39,32,27,28,21,16,90,67,40,30.29,30.08,18,8,0,0.00
2014-1-1,46,32,21,29,21,15,86,66,31,30.31,30.08,14,3,0,0.00
2014-1-2,40,33,24,38,29,20,96,84,73,30.08,29.64,22,4,0,0.16